timestamp,surface_pressure_avg,surface_temp_avg,battery_voltage,lat,long
2019-10-18 00:00:00+00:00,299.783,9.9,12.89,47.84626,-54.09684
2019-10-18 00:10:00+00:00,319.4213,9.9,12.81,47.84626,-54.09684
2019-10-18 00:20:00+00:00,326.2629,9.9,12.97,47.84626,-54.09684
2019-10-18 00:30:00+00:00,326.8497,9.9,12.97,47.84626,-54.09684
2019-10-18 00:40:00+00:00,336.7279,9.9,12.97,47.84626,-54.09684
2019-10-18 00:50:00+00:00,338.4281,9.9,12.97,47.84626,-54.09684
2019-10-18 01:00:00+00:00,332.9813,9.9,12.89,47.84626,-54.09684
2019-10-18 01:10:00+00:00,341.8363,9.9,12.81,47.84626,-54.09684
2019-10-18 01:20:00+00:00,355.968,9.9,12.89,47.84626,-54.09684
2019-10-18 01:30:00+00:00,345.483,9.9,12.97,47.84626,-54.09684
2019-10-18 01:40:00+00:00,335.038,9.87,12.97,47.84626,-54.09684
2019-10-18 01:50:00+00:00,347.3213,9.9,12.97,47.84626,-54.09684
2019-10-18 02:00:00+00:00,354.9879,9.9,12.89,47.84626,-54.09684
2019-10-18 02:10:00+00:00,340.4647,9.9,12.81,47.84626,-54.09684
2019-10-18 02:20:00+00:00,341.3562,9.86,12.89,47.84626,-54.09684
2019-10-18 02:30:00+00:00,350.3263,9.88,12.89,47.84626,-54.09684
2019-10-18 02:40:00+00:00,340.5896,9.89,12.97,47.84626,-54.09684
2019-10-18 02:50:00+00:00,334.9297,9.87,12.97,47.84626,-54.09684
2019-10-18 03:00:00+00:00,332.7014,9.85,12.89,47.84626,-54.09684
2019-10-18 03:10:00+00:00,335.0579,9.86,12.81,47.84626,-54.09684
2019-10-18 03:20:00+00:00,332.153,9.81,12.89,47.84626,-54.09684
2019-10-18 03:30:00+00:00,330.618,9.8,12.89,47.84626,-54.09684
2019-10-18 03:40:00+00:00,323.913,9.8,12.97,47.84626,-54.09684
2019-10-18 03:50:00+00:00,316.5297,9.8,12.97,47.84626,-54.09684
2019-10-18 04:00:00+00:00,317.3013,9.8,12.89,47.84626,-54.09684
2019-10-18 04:10:00+00:00,318.6497,9.8,12.81,47.84626,-54.09684
2019-10-18 04:20:00+00:00,310.2997,9.8,12.89,47.84626,-54.09684
2019-10-18 04:30:00+00:00,309.4313,9.8,12.89,47.84626,-54.09684
2019-10-18 04:40:00+00:00,314.478,9.8,12.97,47.84626,-54.09684
2019-10-18 04:50:00+00:00,299.5831,9.8,12.97,47.84626,-54.09684
2019-10-18 05:00:00+00:00,280.5281,9.8,12.89,47.84626,-54.09684
2019-10-18 05:10:00+00:00,285.278,9.8,12.81,47.84626,-54.09684
2019-10-18 05:20:00+00:00,286.888,9.8,12.89,47.84626,-54.09684
2019-10-18 05:30:00+00:00,265.7864,9.8,12.89,47.84626,-54.09684
2019-10-18 05:40:00+00:00,253.7214,9.8,12.89,47.84626,-54.09684
2019-10-18 05:50:00+00:00,259.2331,9.8,12.97,47.84626,-54.09684
2019-10-18 06:00:00+00:00,253.7231,9.8,12.89,47.84626,-54.09684
2019-10-18 06:10:00+00:00,236.2248,9.8,12.81,47.84626,-54.09684
2019-10-18 06:20:00+00:00,225.9648,9.79,12.89,47.84626,-54.09684
2019-10-18 06:30:00+00:00,226.6431,9.8,12.89,47.84626,-54.09684
2019-10-18 06:40:00+00:00,218.5431,9.8,12.89,47.84626,-54.09684
2019-10-18 06:50:00+00:00,208.6198,9.79,12.97,47.84626,-54.09684
2019-10-18 07:00:00+00:00,204.0814,9.79,12.81,47.84626,-54.09684
2019-10-18 07:10:00+00:00,205.7648,9.8,12.81,47.84626,-54.09684
2019-10-18 07:20:00+00:00,205.8948,9.8,12.89,47.84626,-54.09684
2019-10-18 07:30:00+00:00,200.9415,9.8,12.89,47.84626,-54.09684
2019-10-18 07:40:00+00:00,202.0331,9.8,12.89,47.84626,-54.09684
2019-10-18 07:50:00+00:00,205.0648,9.8,12.89,47.84626,-54.09684
2019-10-18 08:00:00+00:00,200.8115,9.8,12.81,47.84626,-54.09684
2019-10-18 08:10:00+00:00,202.4281,9.8,12.81,47.84626,-54.09684
2019-10-18 08:20:00+00:00,210.4881,9.8,12.89,47.84626,-54.09684
2019-10-18 08:30:00+00:00,209.2231,9.8,12.89,47.84626,-54.09684
2019-10-18 08:40:00+00:00,207.8614,9.8,12.89,47.84626,-54.09684
2019-10-18 08:50:00+00:00,221.0797,9.8,12.89,47.84626,-54.09684
2019-10-18 09:00:00+00:00,228.4281,9.8,12.81,47.84626,-54.09684
2019-10-18 09:10:00+00:00,228.5648,9.8,12.81,47.84626,-54.09684
2019-10-18 09:20:00+00:00,238.8464,9.8,12.89,47.84626,-54.09684
2019-10-18 09:30:00+00:00,246.8714,9.8,12.89,47.84626,-54.09684
2019-10-18 09:40:00+00:00,247.3014,9.8,12.89,47.84626,-54.09684
2019-10-18 09:50:00+00:00,254.7831,9.8,12.89,47.84626,-54.09684
2019-10-18 10:00:00+00:00,268.6864,9.8,12.81,47.84626,-54.09684
2019-10-18 10:10:00+00:00,269.5681,9.8,12.73,47.84626,-54.09684
2019-10-18 10:20:00+00:00,263.2264,9.8,12.89,47.84626,-54.09684
2019-10-18 10:30:00+00:00,270.5064,9.8,12.89,47.84626,-54.09684
2019-10-18 10:40:00+00:00,283.5347,9.89,12.89,47.84626,-54.09684
2019-10-18 10:50:00+00:00,289.183,9.9,12.89,47.84626,-54.09684
2019-10-18 11:00:00+00:00,290.0746,9.89,12.81,47.84626,-54.09684
2019-10-18 11:10:00+00:00,304.513,9.9,12.73,47.84626,-54.09684
2019-10-18 11:20:00+00:00,308.4764,9.9,12.81,47.84626,-54.09684
2019-10-18 11:30:00+00:00,304.3214,9.89,12.89,47.84626,-54.09684
2019-10-18 11:40:00+00:00,303.2796,9.89,12.89,47.84626,-54.09684
2019-10-18 11:50:00+00:00,315.6097,9.9,12.89,47.84626,-54.09684
2019-10-18 12:00:00+00:00,324.513,9.9,12.81,47.84626,-54.09684
2019-10-18 12:10:00+00:00,324.7747,9.9,12.81,47.84626,-54.09684
2019-10-18 12:20:00+00:00,332.843,9.9,12.89,47.84626,-54.09684
2019-10-18 12:30:00+00:00,340.9763,9.9,12.89,47.84626,-54.09684
2019-10-18 12:40:00+00:00,342.1296,9.9,12.89,47.84626,-54.09684
2019-10-18 12:50:00+00:00,344.7847,9.9,12.97,47.84626,-54.09684
2019-10-18 13:00:00+00:00,356.1647,9.9,12.89,47.84626,-54.09684
2019-10-18 13:10:00+00:00,360.9963,9.9,12.81,47.84626,-54.09684
2019-10-18 13:20:00+00:00,355.6946,9.9,12.89,47.84626,-54.09684
2019-10-18 13:30:00+00:00,357.8947,9.9,12.97,47.84626,-54.09684
2019-10-18 13:40:00+00:00,367.2813,9.9,12.97,47.84626,-54.09684
2019-10-18 13:50:00+00:00,364.598,9.9,12.97,47.84626,-54.09684
2019-10-18 14:00:00+00:00,369.033,9.9,12.89,47.84626,-54.09684
2019-10-18 14:10:00+00:00,362.7513,9.9,12.81,47.84626,-54.09684
2019-10-18 14:20:00+00:00,357.4746,9.9,12.89,47.84626,-54.09684
2019-10-18 14:30:00+00:00,363.1412,9.9,12.97,47.84626,-54.09684
2019-10-18 14:40:00+00:00,361.4913,9.9,12.97,47.84626,-54.09684
2019-10-18 14:50:00+00:00,349.7979,9.9,12.97,47.84626,-54.09684
2019-10-18 15:00:00+00:00,348.8596,9.88,12.89,47.84626,-54.09684
2019-10-18 15:10:00+00:00,357.5647,9.89,12.81,47.84626,-54.09684
2019-10-18 15:20:00+00:00,346.8345,9.89,12.89,47.84626,-54.09684
2019-10-18 15:30:00+00:00,334.7463,9.9,12.97,47.84626,-54.09684
2019-10-18 15:40:00+00:00,339.8163,9.9,12.97,47.84626,-54.09684
2019-10-18 15:50:00+00:00,337.7563,9.9,12.97,47.84626,-54.09684
2019-10-18 16:00:00+00:00,327.7196,9.9,12.89,47.84626,-54.09684
2019-10-18 16:10:00+00:00,332.4413,9.9,12.81,47.84626,-54.09684
2019-10-18 16:20:00+00:00,331.313,9.9,12.89,47.84626,-54.09684
2019-10-18 16:30:00+00:00,317.253,9.9,12.89,47.84626,-54.09684
2019-10-18 16:40:00+00:00,318.368,9.9,12.97,47.84626,-54.09684
2019-10-18 16:50:00+00:00,322.718,9.9,12.97,47.84626,-54.09684
2019-10-18 17:00:00+00:00,306.2513,9.9,12.89,47.84626,-54.09684
2019-10-18 17:10:00+00:00,296.4947,9.9,12.81,47.84626,-54.09684
2019-10-18 17:20:00+00:00,304.2513,9.9,12.89,47.84626,-54.09684
2019-10-18 17:30:00+00:00,291.7164,9.9,12.89,47.84626,-54.09684
2019-10-18 17:40:00+00:00,265.3997,9.9,13.21,47.84626,-54.09684
2019-10-18 17:50:00+00:00,266.6397,9.9,13.21,47.84626,-54.09684
2019-10-18 18:00:00+00:00,267.1064,9.9,13.13,47.84626,-54.09684
2019-10-18 18:10:00+00:00,247.5864,9.9,13.05,47.84626,-54.09684
2019-10-18 18:20:00+00:00,228.4298,9.9,13.05,47.84626,-54.09684
2019-10-18 18:30:00+00:00,236.8281,9.92,13.05,47.84626,-54.09684
2019-10-18 18:40:00+00:00,229.6048,9.93,13.13,47.84626,-54.09684
2019-10-18 18:50:00+00:00,203.8748,9.93,13.13,47.84626,-54.09684
2019-10-18 19:00:00+00:00,196.7015,9.95,13.05,47.84626,-54.09684
2019-10-18 19:10:00+00:00,205.0448,9.95,12.97,47.84626,-54.09684
2019-10-18 19:20:00+00:00,194.0398,9.96,12.97,47.84626,-54.09684
2019-10-18 19:30:00+00:00,179.7498,9.97,12.97,47.84626,-54.09684
2019-10-18 19:40:00+00:00,188.3682,9.97,12.97,47.84626,-54.09684
2019-10-18 19:50:00+00:00,194.0415,9.98,12.97,47.84626,-54.09684
2019-10-18 20:00:00+00:00,187.7898,9.99,12.89,47.84626,-54.09684
2019-10-18 20:10:00+00:00,192.5981,9.99,12.81,47.84626,-54.09684
2019-10-18 20:20:00+00:00,206.1148,10.0,12.89,47.84626,-54.09684
2019-10-18 20:30:00+00:00,200.7648,10.0,12.89,47.84626,-54.09684
2019-10-18 20:40:00+00:00,197.2981,10.0,12.89,47.84626,-54.09684
2019-10-18 20:50:00+00:00,210.0914,10.0,12.89,47.84626,-54.09684
2019-10-18 21:00:00+00:00,214.2014,10.0,12.81,47.84626,-54.09684
2019-10-18 21:10:00+00:00,210.9447,10.0,12.73,47.84626,-54.09684
2019-10-18 21:20:00+00:00,215.6398,10.0,12.81,47.84626,-54.09684
2019-10-18 21:30:00+00:00,230.9714,10.0,12.81,47.84626,-54.09684
2019-10-18 21:40:00+00:00,232.0348,10.0,12.89,47.84626,-54.09684
2019-10-18 21:50:00+00:00,226.1298,10.0,12.89,47.84626,-54.09684
2019-10-18 22:00:00+00:00,232.3314,10.0,12.81,47.84626,-54.09684
2019-10-18 22:10:00+00:00,242.5464,10.0,12.73,47.84626,-54.09684
2019-10-18 22:20:00+00:00,243.3131,10.0,12.81,47.84626,-54.09684
2019-10-18 22:30:00+00:00,237.1615,10.0,12.81,47.84626,-54.09684
2019-10-18 22:40:00+00:00,243.4564,10.0,12.89,47.84626,-54.09684
2019-10-18 22:50:00+00:00,256.1131,10.0,12.89,47.84626,-54.09684
2019-10-18 23:00:00+00:00,255.3998,10.0,12.81,47.84626,-54.09684
2019-10-18 23:10:00+00:00,251.8897,10.0,12.73,47.84626,-54.09684
2019-10-18 23:20:00+00:00,263.6364,10.0,12.81,47.84626,-54.09684
2019-10-18 23:30:00+00:00,274.073,10.0,12.81,47.84626,-54.09684
2019-10-18 23:40:00+00:00,272.458,10.0,12.81,47.84626,-54.09684
2019-10-18 23:50:00+00:00,272.6847,10.0,12.89,47.84626,-54.09684
